This is the latest recevied weather packets stored in our database for station/object KN6ZYR. If no packets are shown the sender has not sent any weather packets the latest 10 day(s).
| Time | Temp. | Humidity | Pressure | Rain* | Wind** | Luminosity | Snow |
|---|---|---|---|---|---|---|---|
| 1777880780 | 12.22° C | 49% | 1015.3 hPa | 0 mm | - | 0 W/m² | - |
| 1777880478 | 12.22° C | 48% | 1015.3 hPa | 0 mm | - | 0 W/m² | - |
| 1777880176 | 12.22° C | 47% | 1014.9 hPa | 0 mm | - | 0 W/m² | - |
| 1777879874 | 12.78° C | 47% | 1015 hPa | 0 mm | - | 0 W/m² | - |
| 1777879572 | 12.78° C | 47% | 1014.8 hPa | 0 mm | - | 0 W/m² | - |
| 1777879268 | 12.78° C | 46% | 1015 hPa | 0 mm | - | 0 W/m² | - |
| 1777878966 | 12.78° C | 47% | 1015.1 hPa | 0 mm | - | 0 W/m² | - |
| 1777878662 | 12.78° C | 47% | 1014.9 hPa | 0 mm | - | 0 W/m² | - |
| 1777878360 | 12.78° C | 47% | 1015.3 hPa | 0 mm | - | 0 W/m² | - |
| 1777878055 | 12.78° C | 47% | 1015.4 hPa | 0 mm | - | 0 W/m² | - |
| 1777877752 | 12.22° C | 48% | 1015.4 hPa | 0 mm | - | 0 W/m² | - |
| 1777877449 | 12.78° C | 47% | 1015.4 hPa | 0 mm | - | 0 W/m² | - |
| 1777877146 | 12.78° C | 46% | 1015.4 hPa | 0 mm | - | 0 W/m² | - |
| 1777876843 | 13.33° C | 46% | 1014.8 hPa | 0 mm | - | 0 W/m² | - |
| 1777876541 | 13.33° C | 47% | 1015 hPa | 0 mm | - | 0 W/m² | - |
| 1777876238 | 13.33° C | 46% | 1015 hPa | 0 mm | - | 0 W/m² | - |
| 1777875934 | 13.33° C | 46% | 1015 hPa | 0 mm | - | 0 W/m² | - |
| 1777875630 | 13.33° C | 47% | 1014.9 hPa | 0 mm | - | 0 W/m² | - |
| 1777875327 | 13.33° C | 47% | 1014.7 hPa | 0 mm | - | 0 W/m² | - |
| 1777875024 | 13.33° C | 47% | 1014.8 hPa | 0 mm | - | 0 W/m² | - |
| 1777874720 | 13.33° C | 48% | 1015 hPa | 0 mm | - | 0 W/m² | - |
| 1777874416 | 13.89° C | 46% | 1014.9 hPa | 0 mm | - | 0 W/m² | - |
| 1777874114 | 13.89° C | 45% | 1014.9 hPa | 0 mm | - | 0 W/m² | - |
| 1777873812 | 14.44° C | 45% | 1014.7 hPa | 0 mm | - | 0 W/m² | - |
| 1777873508 | 14.44° C | 44% | 1014.7 hPa | 0 mm | - | 0 W/m² | - |
* Rain latest hour (hover to see other rain measurements)
** Current wind speed in m/s (hover to see current wind gust speed)